Time,TemperatureF,DewpointF,PressureIn,WindDirection,WindDirectionDegrees,WindSpeedMPH,WindSpeedGustMPH,Humidity,HourlyPrecipIn,Conditions,Clouds,dailyrainin,SoftwareType,DateUTC
2013-04-27 00:08:00,45.8,37.0,30.33,SE,125,0.0,0.0,71,0.00,,,0.00,weatherlink.com 1.10,2013-04-27 04:08:00,
2013-04-27 00:23:00,44.5,36.0,30.33,SE,125,0.0,0.0,73,0.00,,,0.00,weatherlink.com 1.10,2013-04-27 04:23:00,
2013-04-27 00:38:00,43.4,37.0,30.33,SE,126,0.0,0.0,77,0.00,,,0.00,weatherlink.com 1.10,2013-04-27 04:38:00,
2013-04-27 00:53:00,43.1,37.0,30.33,SE,125,0.0,0.0,78,0.00,,,0.00,weatherlink.com 1.10,2013-04-27 04:53:00,
2013-04-27 01:08:00,41.5,36.0,30.33,SE,125,0.0,0.0,81,0.00,,,0.00,weatherlink.com 1.10,2013-04-27 05:08:00,
2013-04-27 01:23:00,41.2,36.0,30.33,SE,125,0.0,0.0,83,0.00,,,0.00,weatherlink.com 1.10,2013-04-27 05:23:00,
2013-04-27 01:38:00,41.0,36.0,30.33,SE,125,0.0,0.0,82,0.00,,,0.00,weatherlink.com 1.10,2013-04-27 05:38:00,
2013-04-27 01:53:00,40.4,37.0,30.32,SE,125,0.0,0.0,86,0.00,,,0.00,weatherlink.com 1.10,2013-04-27 05:53:00,
2013-04-27 02:08:00,39.7,36.0,30.32,SE,125,0.0,0.0,86,0.00,,,0.00,weatherlink.com 1.10,2013-04-27 06:08:00,
2013-04-27 02:23:00,39.1,35.0,30.32,SE,126,0.0,0.0,86,0.00,,,0.00,weatherlink.com 1.10,2013-04-27 06:23:00,
2013-04-27 02:38:00,38.8,35.0,30.31,SE,126,0.0,0.0,87,0.00,,,0.00,weatherlink.com 1.10,2013-04-27 06:38:00,
2013-04-27 02:53:00,39.3,36.0,30.30,SE,125,0.0,0.0,86,0.00,,,0.00,weatherlink.com 1.10,2013-04-27 06:53:00,
2013-04-27 03:08:00,40.1,35.0,30.30,SE,125,0.0,0.0,81,0.00,,,0.00,weatherlink.com 1.10,2013-04-27 07:08:00,
2013-04-27 03:23:00,42.4,35.0,30.30,ESE,120,0.0,0.0,75,0.00,,,0.00,weatherlink.com 1.10,2013-04-27 07:23:00,
2013-04-27 03:38:00,44.0,35.0,30.30,SE,129,0.0,1.0,71,0.00,,,0.00,weatherlink.com 1.10,2013-04-27 07:38:00,
2013-04-27 03:53:00,43.8,35.0,30.30,SE,129,0.0,1.0,70,0.00,,,0.00,weatherlink.com 1.10,2013-04-27 07:53:00,
2013-04-27 04:08:00,43.6,35.0,30.30,SE,145,0.0,1.0,71,0.00,,,0.00,weatherlink.com 1.10,2013-04-27 08:08:00,
2013-04-27 04:23:00,42.9,34.0,30.30,SE,145,0.0,0.0,72,0.00,,,0.00,weatherlink.com 1.10,2013-04-27 08:23:00,
2013-04-27 04:38:00,42.7,34.0,30.30,SE,145,0.0,1.0,72,0.00,,,0.00,weatherlink.com 1.10,2013-04-27 08:38:00,
2013-04-27 04:53:00,42.9,34.0,30.30,SSE,150,0.0,1.0,71,0.00,,,0.00,weatherlink.com 1.10,2013-04-27 08:53:00,
2013-04-27 05:08:00,42.3,34.0,30.30,SSE,152,0.0,0.0,72,0.00,,,0.00,weatherlink.com 1.10,2013-04-27 09:08:00,
2013-04-27 05:23:00,41.8,34.0,30.29,SSE,153,0.0,0.0,73,0.00,,,0.00,weatherlink.com 1.10,2013-04-27 09:23:00,
2013-04-27 05:38:00,41.3,34.0,30.28,SSE,152,0.0,0.0,74,0.00,,,0.00,weatherlink.com 1.10,2013-04-27 09:38:00,
2013-04-27 05:53:00,40.7,33.0,30.28,SSE,152,0.0,0.0,75,0.00,,,0.00,weatherlink.com 1.10,2013-04-27 09:53:00,
2013-04-27 06:08:00,39.8,33.0,30.28,SSE,152,0.0,0.0,77,0.00,,,0.00,weatherlink.com 1.10,2013-04-27 10:08:00,
2013-04-27 06:23:00,38.9,34.0,30.28,SSE,152,0.0,0.0,81,0.00,,,0.00,weatherlink.com 1.10,2013-04-27 10:23:00,
2013-04-27 06:38:00,38.6,33.0,30.28,SSE,153,0.0,0.0,81,0.00,,,0.00,weatherlink.com 1.10,2013-04-27 10:38:00,
2013-04-27 06:53:00,38.4,34.0,30.29,SSE,152,0.0,0.0,83,0.00,,,0.00,weatherlink.com 1.10,2013-04-27 10:53:00,
2013-04-27 07:08:00,39.2,34.0,30.28,SSE,152,0.0,0.0,81,0.00,,,0.00,weatherlink.com 1.10,2013-04-27 11:08:00,
2013-04-27 07:24:00,39.9,34.0,30.28,SSE,152,0.0,0.0,80,0.00,,,0.00,weatherlink.com 1.10,2013-04-27 11:24:00,
2013-04-27 07:39:00,41.1,35.0,30.28,SSE,152,0.0,0.0,78,0.00,,,0.00,weatherlink.com 1.10,2013-04-27 11:39:00,
2013-04-27 07:54:00,46.5,38.0,30.28,SSE,153,0.0,0.0,72,0.00,,,0.00,weatherlink.com 1.10,2013-04-27 11:54:00,
2013-04-27 08:09:00,50.3,39.0,30.28,SE,135,1.0,3.0,65,0.00,,,0.00,weatherlink.com 1.10,2013-04-27 12:09:00,
2013-04-27 08:24:00,53.6,38.0,30.28,ENE,61,2.0,3.0,56,0.00,,,0.00,weatherlink.com 1.10,2013-04-27 12:24:00,
2013-04-27 08:39:00,54.0,38.0,30.28,ENE,58,2.0,3.0,56,0.00,,,0.00,weatherlink.com 1.10,2013-04-27 12:39:00,
2013-04-27 08:54:00,54.4,38.0,30.28,ENE,73,1.0,3.0,54,0.00,,,0.00,weatherlink.com 1.10,2013-04-27 12:54:00,
2013-04-27 09:09:00,55.5,39.0,30.27,ENE,62,1.0,3.0,55,0.00,,,0.00,weatherlink.com 1.10,2013-04-27 13:09:00,
2013-04-27 09:24:00,57.7,40.0,30.27,ENE,70,2.0,6.0,52,0.00,,,0.00,weatherlink.com 1.10,2013-04-27 13:24:00,
2013-04-27 09:39:00,60.0,40.0,30.26,ENE,57,7.0,8.0,48,0.00,,,0.00,weatherlink.com 1.10,2013-04-27 13:39:00,
2013-04-27 09:54:00,60.2,41.0,30.26,South,183,1.0,6.0,49,0.00,,,0.00,weatherlink.com 1.10,2013-04-27 13:54:00,
2013-04-27 10:09:00,61.2,41.0,30.25,ENE,57,2.0,6.0,47,0.00,,,0.00,weatherlink.com 1.10,2013-04-27 14:09:00,
2013-04-27 10:24:00,62.1,41.0,30.25,East,89,2.0,5.0,46,0.00,,,0.00,weatherlink.com 1.10,2013-04-27 14:24:00,
2013-04-27 10:39:00,63.0,42.0,30.25,SE,134,2.0,5.0,46,0.00,,,0.00,weatherlink.com 1.10,2013-04-27 14:39:00,
2013-04-27 10:54:00,63.1,39.0,30.24,ESE,116,2.0,7.0,42,0.00,,,0.00,weatherlink.com 1.10,2013-04-27 14:54:00,
2013-04-27 11:09:00,63.9,41.0,30.23,NW,326,1.0,7.0,44,0.00,,,0.00,weatherlink.com 1.10,2013-04-27 15:09:00,
2013-04-27 11:24:00,63.8,41.0,30.23,ENE,65,3.0,6.0,43,0.00,,,0.00,weatherlink.com 1.10,2013-04-27 15:24:00,
2013-04-27 11:39:00,64.7,41.0,30.22,East,79,3.0,5.0,42,0.00,,,0.00,weatherlink.com 1.10,2013-04-27 15:39:00,
2013-04-27 11:54:00,64.8,40.0,30.22,SSE,156,2.0,8.0,41,0.00,,,0.00,weatherlink.com 1.10,2013-04-27 15:54:00,
2013-04-27 12:09:00,65.9,43.0,30.22,NNE,26,3.0,8.0,44,0.00,,,0.00,weatherlink.com 1.10,2013-04-27 16:09:00,
2013-04-27 12:24:00,66.9,40.0,30.22,WNW,296,2.0,10.0,37,0.00,,,0.00,weatherlink.com 1.10,2013-04-27 16:24:00,
2013-04-27 12:39:00,67.1,42.0,30.22,NE,40,3.0,7.0,40,0.00,,,0.00,weatherlink.com 1.10,2013-04-27 16:39:00,
2013-04-27 12:54:00,67.6,41.0,30.22,East,98,3.0,10.0,38,0.00,,,0.00,weatherlink.com 1.10,2013-04-27 16:54:00,
2013-04-27 13:10:00,67.3,42.0,30.21,East,88,2.0,10.0,40,0.00,,,0.00,weatherlink.com 1.10,2013-04-27 17:10:00,
2013-04-27 13:25:00,67.2,44.0,30.21,NNE,16,2.0,9.0,44,0.00,,,0.00,weatherlink.com 1.10,2013-04-27 17:25:00,
2013-04-27 13:40:00,66.7,42.0,30.19,South,180,1.0,11.0,40,0.00,,,0.00,weatherlink.com 1.10,2013-04-27 17:40:00,
2013-04-27 13:55:00,67.5,44.0,30.18,SE,143,1.0,13.0,43,0.00,,,0.00,weatherlink.com 1.10,2013-04-27 17:55:00,
2013-04-27 14:10:00,67.7,45.0,30.17,SE,142,1.0,10.0,44,0.00,,,0.00,weatherlink.com 1.10,2013-04-27 18:10:00,
2013-04-27 14:25:00,68.8,45.0,30.16,NE,50,1.0,7.0,43,0.00,,,0.00,weatherlink.com 1.10,2013-04-27 18:25:00,
2013-04-27 14:40:00,67.4,45.0,30.15,East,84,4.0,12.0,44,0.00,,,0.00,weatherlink.com 1.10,2013-04-27 18:40:00,
2013-04-27 14:55:00,67.4,43.0,30.15,ESE,118,3.0,11.0,42,0.00,,,0.00,weatherlink.com 1.10,2013-04-27 18:55:00,
2013-04-27 15:10:00,66.7,43.0,30.15,ENE,68,4.0,10.0,43,0.00,,,0.00,weatherlink.com 1.10,2013-04-27 19:10:00,
2013-04-27 15:25:00,65.8,44.0,30.15,ESE,107,2.0,10.0,45,0.00,,,0.00,weatherlink.com 1.10,2013-04-27 19:25:00,
2013-04-27 15:40:00,65.8,45.0,30.14,NE,44,4.0,7.0,47,0.00,,,0.00,weatherlink.com 1.10,2013-04-27 19:40:00,
2013-04-27 15:55:00,66.2,45.0,30.13,ENE,77,2.0,10.0,47,0.00,,,0.00,weatherlink.com 1.10,2013-04-27 19:55:00,
2013-04-27 16:10:00,66.1,46.0,30.13,ENE,70,2.0,9.0,49,0.00,,,0.00,weatherlink.com 1.10,2013-04-27 20:10:00,
2013-04-27 16:25:00,66.0,47.0,30.12,SE,146,2.0,7.0,50,0.00,,,0.00,weatherlink.com 1.10,2013-04-27 20:25:00,
2013-04-27 16:41:00,65.5,46.0,30.12,SE,131,1.0,12.0,50,0.00,,,0.00,weatherlink.com 1.10,2013-04-27 20:41:00,
2013-04-27 16:55:00,64.6,46.0,30.11,East,83,1.0,8.0,52,0.00,,,0.00,weatherlink.com 1.10,2013-04-27 20:55:00,
2013-04-27 17:10:00,64.1,47.0,30.11,SE,135,2.0,6.0,54,0.00,,,0.00,weatherlink.com 1.10,2013-04-27 21:10:00,
2013-04-27 17:25:00,63.4,49.0,30.10,ENE,73,0.0,6.0,60,0.00,,,0.00,weatherlink.com 1.10,2013-04-27 21:25:00,
2013-04-27 17:40:00,63.1,49.0,30.10,SSE,156,3.0,6.0,61,0.00,,,0.00,weatherlink.com 1.10,2013-04-27 21:40:00,
2013-04-27 17:55:00,62.2,49.0,30.10,SSE,167,2.0,6.0,62,0.00,,,0.00,weatherlink.com 1.10,2013-04-27 21:55:00,
2013-04-27 18:10:00,61.7,50.0,30.10,NW,312,1.0,5.0,65,0.00,,,0.00,weatherlink.com 1.10,2013-04-27 22:10:00,
2013-04-27 18:25:00,61.1,49.0,30.10,SSE,162,1.0,3.0,65,0.00,,,0.00,weatherlink.com 1.10,2013-04-27 22:25:00,
2013-04-27 18:40:00,60.9,49.0,30.10,NNE,17,3.0,7.0,65,0.00,,,0.00,weatherlink.com 1.10,2013-04-27 22:40:00,
2013-04-27 18:55:00,60.7,50.0,30.09,NNE,20,0.0,5.0,68,0.00,,,0.00,weatherlink.com 1.10,2013-04-27 22:55:00,
2013-04-27 19:10:00,60.3,50.0,30.09,NE,46,2.0,3.0,69,0.00,,,0.00,weatherlink.com 1.10,2013-04-27 23:10:00,
2013-04-27 19:25:00,59.9,50.0,30.08,SE,131,0.0,8.0,69,0.00,,,0.00,weatherlink.com 1.10,2013-04-27 23:25:00,
2013-04-27 19:40:00,59.4,50.0,30.08,ESE,121,2.0,6.0,70,0.00,,,0.00,weatherlink.com 1.10,2013-04-27 23:40:00,
2013-04-27 19:55:00,58.4,50.0,30.07,SE,131,2.0,8.0,74,0.00,,,0.00,weatherlink.com 1.10,2013-04-27 23:55:00,
2013-04-27 20:10:00,58.0,50.0,30.06,ESE,110,0.0,5.0,75,0.00,,,0.00,weatherlink.com 1.10,2013-04-28 00:10:00,
2013-04-27 20:25:00,57.8,50.0,30.06,North,4,0.0,5.0,76,0.00,,,0.00,weatherlink.com 1.10,2013-04-28 00:25:00,
2013-04-27 20:40:00,57.6,50.0,30.06,East,100,3.0,4.0,76,0.00,,,0.00,weatherlink.com 1.10,2013-04-28 00:40:00,
2013-04-27 20:55:00,57.5,50.0,30.05,ESE,112,1.0,4.0,77,0.00,,,0.00,weatherlink.com 1.10,2013-04-28 00:55:00,
2013-04-27 21:10:00,57.2,50.0,30.05,ESE,103,0.0,5.0,77,0.00,,,0.00,weatherlink.com 1.10,2013-04-28 01:10:00,
2013-04-27 21:25:00,57.0,50.0,30.05,SSE,150,1.0,6.0,78,0.00,,,0.00,weatherlink.com 1.10,2013-04-28 01:25:00,
2013-04-27 21:40:00,56.8,50.0,30.04,ESE,121,1.0,4.0,79,0.00,,,0.00,weatherlink.com 1.10,2013-04-28 01:40:00,
2013-04-27 21:55:00,56.2,51.0,30.04,ENE,67,1.0,6.0,83,0.00,,,0.00,weatherlink.com 1.10,2013-04-28 01:55:00,
2013-04-27 22:10:00,55.4,51.0,30.04,SE,125,4.0,5.0,85,0.01,,,0.01,weatherlink.com 1.10,2013-04-28 02:10:00,
2013-04-27 22:26:00,55.2,51.0,30.03,SW,219,0.0,3.0,86,0.01,,,0.01,weatherlink.com 1.10,2013-04-28 02:26:00,
2013-04-27 22:41:00,55.1,51.0,30.03,SE,140,0.0,3.0,86,0.01,,,0.01,weatherlink.com 1.10,2013-04-28 02:41:00,
2013-04-27 22:56:00,55.1,51.0,30.02,ESE,107,0.0,3.0,86,0.01,,,0.01,weatherlink.com 1.10,2013-04-28 02:56:00,
2013-04-27 23:11:00,55.2,51.0,30.02,ENE,63,1.0,4.0,86,0.00,,,0.01,weatherlink.com 1.10,2013-04-28 03:11:00,
2013-04-27 23:26:00,55.0,51.0,30.01,ENE,58,1.0,4.0,86,0.00,,,0.01,weatherlink.com 1.10,2013-04-28 03:26:00,
2013-04-27 23:41:00,55.0,51.0,30.01,SSE,150,0.0,3.0,86,0.00,,,0.01,weatherlink.com 1.10,2013-04-28 03:41:00,
2013-04-27 23:56:00,54.9,51.0,30.00,SE,129,1.0,7.0,86,0.00,,,0.01,weatherlink.com 1.10,2013-04-28 03:56:00,